Regional Weather Roundup
Issued by NWS

Home | Current Version | Previous Version | Graphics & Text | Print | Product List | Glossary On
Versions: 1 2 3 4 5 6 7 8 9 10 11 12 13 14 15 16 17 18 19 20 21 22 23 24 25 26 27 28 29 30 31 32 33 34 35 36 37 38 39 40 41 42 43 44 45 46 47 48 49 50
000
ASUS43 KFSD 242210
RWRSD

WEATHER ROUNDUP FOR SOUTH DAKOTA
NATIONAL WEATHER SERVICE SIOUX FALLS SD
400 PM CST SAT JAN 24 2015

NOTE: "FAIR" INDICATES FEW OR NO CLOUDS BELOW 12,000 FEET WITH NO
SIGNIFICANT WEATHER AND/OR OBSTRUCTIONS TO VISIBILITY.


SDZ001>005-009-010-012>017-242300-
NORTHWEST AND NORTH CENTRAL SOUTH DAKOTA

CITY           SKY/WX    TMP DP  RH WIND       PRES   REMARKS
BUFFALO          N/A     44  36  73 NW37G52   29.70R
FAITH            N/A     45  34  65 NW38G54   29.69R
MOBRIDGE       LGT RAIN  46  38  73 NW22G31   29.55R
$$

SDZ012>016-024>037-041>051-057-063-072>074-242300-
SOUTHWEST AND SOUTH CENTRAL SOUTH DAKOTA

CITY           SKY/WX    TMP DP  RH WIND       PRES   REMARKS
RAPID CTY ARPT PTSUNNY   47  37  68 NW23G33   29.80R
PIERRE         LGT RAIN  53  36  52 NW31G41   29.59S
CUSTER         LGT RAIN  37  32  82 NW13G33   29.85R
ELLSWORTH AFB  LGT RAIN  46  38  74 NW35G48   29.79
PHILIP         CLOUDY    53  35  50 NW25G37   29.68R
PINE RIDGE     LGT RAIN  49  34  56 NW21      29.80R
SPEARFISH      MIX PCPN  39  36  87 NW28G39   29.90R
WINNER         CLOUDY    52  37  56 W26G33    29.63F
$$

SDZ004>011-016>023-039-040-242300-
NORTHEAST SOUTH DAKOTA

CITY           SKY/WX    TMP DP  RH WIND       PRES   REMARKS
ABERDEEN       LGT RAIN  39  37  92 CALM      29.57S
WATERTOWN      MIX PCPN  37  32  82 W6        29.56S
SISSETON         N/A     36  32  85 N8        29.56S
$$

SDZ017-020-022-023-036>040-048>070-242300-
SOUTHEAST SOUTH DAKOTA

CITY           SKY/WX    TMP DP  RH WIND       PRES   REMARKS
SIOUX FALLS    LGT RAIN  42  34  73 W5        29.59F
HURON          CLOUDY    43  37  79 SW5       29.57F
CHAMBERLAIN    CLOUDY    47  35  63 NW8       29.60F
MITCHELL       LGT RAIN  45  36  70 W6        29.60S
YANKTON        CLOUDY    46  30  53 SW7       29.62F
$$

ABBREVIATIONS USED IN REMARKS
   TC - TEMPERATURE IN CELSIUS
  WCI - WIND CHILL INDEX
   HX - HEAT INDEX
  VSB - VISIBILITY



USA.gov is the U.S. government's official web portal to all federal, state and local government web resources and services.